Weather History for Barrow, AK

Change the Weather History Date:

Friday, August 23, 2013

  Actual Average Record
Temperature  
Mean Temperature 36 °F 38 °F  
Max Temperature 37 °F 43 °F 65 °F (1954)
Min Temperature 34 °F 34 °F 22 °F (1956)
Degree Days  
Heating Degree Days 29 27  
Month to date heating degree days 555 587  
Since 1 June heating degree days 1962 2214  
Since 1 July heating degree days 1184 1334  
Cooling Degree Days 0    
Month to date cooling degree days 0  
Year to date cooling degree days 0  
Since 1 June cooling degree days 0  
Moisture  
Dew Point 30 °F    
Average Humidity 0    
Maximum Humidity 0    
Minimum Humidity 0    
Precipitation  
Precipitation 0.01 in 0.03 in 0.37 in (1951)
Month to date precipitation 1.28 0.79  
Year to date precipitation 4.95 2.79  
Snow  
Snow 0.10 in 0.00 in 0.20 in (2003)
Month to date snowfall 0.5 0.5  
Since 1 June snowfall 0.8 1.4  
Since 1 July snowfall 0.5 0.7  
Snow Depth 0.00 in    
Sea Level Pressure  
Sea Level Pressure 29.90 in    
Wind  
Wind Speed 6 mph (North)    
Max Wind Speed 12 mph    
Max Gust Speed 14 mph    
Visibility 9 miles    
Events Snow    
T = Trace of Precipitation, MM = Missing Value Source: NWS Daily Summary

Daily Weather History Graph

Daily Weather History Graph

Search for Another Location

Airport:

Trip Planner

Search our weather history database for the weather conditions in past years. The results will help you decide how hot, cold, wet, or windy it might be!

Date:

Astronomy

Aug. 23, 2013 Rise Set
Actual Time 5:52 AM AKDT 11:02 PM AKDT
Civil Twilight 4:01 AM AKDT 12:48 AM AKDT
Nautical Twilight Sun does not rise Sun does not rise
Astronomical Twilight Sun does not rise Sun does not rise
Moon 9:34 PM AKDT (8/23) 11:40 AM AKDT (8/23)
Length of Visible Light 20h 47m
Length of Day
17h 10m
Waning Gibbous, 90% of the Moon is Illuminated
Aug 23
Waning Gibbous
Aug 28
Last Quarter
Sep 5
New
Sep 12
First Quarter
Sep 19
Full

Hourly Weather History & Observations

Time (AKDT) Temp. Windchill Dew Point Humidity Pressure Visibility Wind Dir Wind Speed Gust Speed Precip Events Conditions
12:35 AM 35.6 °F 28.6 °F 32.0 °F 87% 29.80 in 10.0 mi NNE 9.2 mph - N/A   Overcast
12:46 AM 35.6 °F 29.2 °F 33.8 °F 93% 29.80 in 10.0 mi NNE 8.1 mph - N/A   Overcast
12:53 AM 36.0 °F 29.6 °F 32.0 °F 86% 29.81 in 10.0 mi NNE 8.1 mph - N/A   Overcast
1:26 AM 35.6 °F 28.6 °F 32.0 °F 87% 29.81 in 10.0 mi NNE 9.2 mph - N/A   Overcast
1:53 AM 36.0 °F 29.6 °F 32.0 °F 86% 29.82 in 10.0 mi North 8.1 mph - N/A   Overcast
2:04 AM 35.6 °F 29.2 °F 32.0 °F 87% 29.81 in 10.0 mi North 8.1 mph - N/A   Overcast
2:10 AM 35.6 °F 29.9 °F 32.0 °F 87% 29.81 in 10.0 mi NNE 6.9 mph - N/A   Overcast
2:21 AM 35.6 °F 29.2 °F 32.0 °F 87% 29.82 in 10.0 mi NNE 8.1 mph - N/A   Overcast
2:53 AM 35.1 °F 28.6 °F 33.1 °F 92% 29.83 in 10.0 mi NNE 8.1 mph - N/A   Overcast
3:03 AM 35.6 °F 30.7 °F 33.8 °F 93% 29.82 in 3.0 mi NNE 5.8 mph - 0.00 in Snow Light Snow
3:18 AM 35.6 °F 29.9 °F 33.8 °F 93% 29.83 in 3.0 mi NNE 6.9 mph - 0.00 in Snow Light Snow
3:40 AM 35.6 °F 29.9 °F 33.8 °F 93% 29.83 in 7.0 mi NNE 6.9 mph - 0.00 in   Overcast
3:53 AM 35.1 °F 29.3 °F 33.1 °F 92% 29.83 in 7.0 mi NNE 6.9 mph - 0.00 in   Overcast
4:46 AM 35.6 °F 29.9 °F 32.0 °F 87% 29.84 in 10.0 mi North 6.9 mph - N/A   Overcast
4:53 AM 35.1 °F 29.3 °F 32.0 °F 89% 29.84 in 10.0 mi NNE 6.9 mph - N/A   Overcast
5:53 AM 35.1 °F 27.9 °F 30.9 °F 85% 29.86 in 10.0 mi North 9.2 mph - N/A   Overcast
6:01 AM 35.6 °F 28.6 °F 30.2 °F 81% 29.85 in 10.0 mi North 9.2 mph - N/A   Overcast
6:53 AM 35.1 °F 28.6 °F 30.0 °F 82% 29.86 in 10.0 mi North 8.1 mph - N/A   Overcast
7:41 AM 33.8 °F 28.6 °F 30.2 °F 87% 29.86 in 5.0 mi NNW 5.8 mph - 0.00 in Snow Light Snow
7:53 AM 34.0 °F 27.2 °F 30.0 °F 85% 29.87 in 10.0 mi North 8.1 mph - 0.00 in   Mostly Cloudy
8:53 AM 35.1 °F 28.6 °F 28.0 °F 76% 29.88 in 10.0 mi North 8.1 mph - N/A   Overcast
9:53 AM 35.1 °F 30.1 °F 28.9 °F 78% 29.89 in 10.0 mi NNW 5.8 mph - 0.00 in Snow Light Snow
10:28 AM 35.6 °F 29.9 °F 30.2 °F 81% 29.89 in 9.0 mi North 6.9 mph - 0.00 in   Mostly Cloudy
10:39 AM 35.6 °F 29.2 °F 28.4 °F 75% 29.89 in 10.0 mi North 8.1 mph - 0.00 in   Partly Cloudy
10:53 AM 36.0 °F 29.0 °F 30.9 °F 82% 29.90 in 10.0 mi North 9.2 mph - 0.00 in   Mostly Cloudy
11:14 AM 35.6 °F 29.2 °F 28.4 °F 75% 29.90 in 10.0 mi North 8.1 mph - N/A   Scattered Clouds
11:51 AM 35.6 °F 29.9 °F 28.4 °F 75% 29.91 in 10.0 mi NNW 6.9 mph - N/A   Mostly Cloudy
11:53 AM 36.0 °F 30.3 °F 28.9 °F 76% 29.91 in 10.0 mi NNW 6.9 mph - N/A   Mostly Cloudy
12:53 PM 36.0 °F 30.3 °F 28.9 °F 76% 29.92 in 9.0 mi NNW 6.9 mph - 0.00 in Snow Light Snow
1:53 PM 36.0 °F 30.3 °F 28.9 °F 76% 29.93 in 10.0 mi North 6.9 mph - 0.00 in   Mostly Cloudy
2:35 PM 35.6 °F 29.2 °F 30.2 °F 81% 29.93 in 10.0 mi North 8.1 mph - N/A   Overcast
2:53 PM 36.0 °F 29.0 °F 28.9 °F 76% 29.94 in 10.0 mi North 9.2 mph - N/A   Overcast
3:53 PM 36.0 °F 29.0 °F 28.9 °F 76% 29.95 in 10.0 mi NNW 9.2 mph - N/A   Overcast
4:32 PM 35.6 °F 28.6 °F 28.4 °F 75% 29.95 in 10.0 mi NNW 9.2 mph - N/A   Overcast
4:53 PM 35.1 °F 29.3 °F 28.9 °F 78% 29.96 in 10.0 mi NNW 6.9 mph - N/A   Overcast
5:00 PM 35.6 °F 29.2 °F 30.2 °F 81% 29.95 in 9.0 mi NNW 8.1 mph - 0.00 in Snow Light Snow
5:53 PM 36.0 °F 30.3 °F 30.0 °F 79% 29.96 in 9.0 mi North 6.9 mph - 0.00 in   Overcast
6:53 PM 36.0 °F 30.3 °F 30.0 °F 79% 29.97 in 10.0 mi North 6.9 mph - N/A   Overcast
7:53 PM 36.0 °F 32.1 °F 28.9 °F 76% 29.97 in 10.0 mi NNE 4.6 mph - N/A   Overcast
8:26 PM 35.6 °F 31.7 °F 28.4 °F 75% 29.97 in 10.0 mi North 4.6 mph - N/A   Overcast
8:53 PM 36.0 °F 32.1 °F 30.0 °F 79% 29.98 in 10.0 mi North 4.6 mph - N/A   Overcast
9:07 PM 35.6 °F 31.7 °F 30.2 °F 81% 29.98 in 10.0 mi North 4.6 mph - N/A   Overcast
9:17 PM 35.6 °F 31.7 °F 30.2 °F 81% 29.98 in 10.0 mi North 4.6 mph - N/A   Overcast
9:53 PM 35.1 °F 32.2 °F 30.0 °F 82% 29.99 in 10.0 mi North 3.5 mph - N/A   Overcast
10:10 PM 35.6 °F - 30.2 °F 81% 29.99 in 10.0 mi Calm Calm - N/A   Overcast
10:53 PM 36.0 °F - 30.0 °F 79% 30.00 in 10.0 mi Calm Calm - N/A   Overcast
11:02 PM 35.6 °F - 30.2 °F 81% 30.00 in 10.0 mi Calm Calm - N/A   Overcast
11:34 PM 35.6 °F - 30.2 °F 81% 30.00 in 10.0 mi Calm Calm - N/A   Overcast
11:53 PM 36.0 °F - 30.0 °F 79% 30.00 in 10.0 mi Calm Calm - N/A   Overcast